User: anonymous   Login
Location: Unspecified
(0.0000°N, 0.0000°E)
Time: 09:06:13
(UTC+01:00)
Language:

AO-7 - Orbit

View from above orbital plane
View from above orbital plane
View from above satellite
View from above satellite

Ground track
Ground track

The orbit data is extracted from the following two-line orbital elements,

1 07530U 74089B   17054.83876162 -.00000040  00000-0  28123-4 0  9996
2 07530 101.6163  25.8253 0011957 180.6947 247.7429 12.53625546934659
Epoch (UTC): 23 February 2017 20:07:49
Eccentricity: 0.0011957
inclination: 101.6163°
perigee height: 1440 km
apogee height: 1459 km
right ascension of ascending node: 25.8253°
argument of perigee: 180.6947°
revolutions per day: 12.53625546
mean anomaly at epoch: 247.7429°
orbit number at epoch: 93465

The dashed part of the orbit path shows where the satellite is in the earth's shadow,  

DLR